Starlink 36283

operational
NORAD ID: 67197 Int'l Des: 2025-304 Owner: SPXS Country: US Constellation: starlink
LEOCIRCULAR

Über Starlink 36283

Beschreibung wird geladen...

Live-Position

3D-Globus wird geladen...

Nächste Überflüge

Höhenverlauf

Altitude vs Time

uPlot chart will show altitude changes over time

Zweizeiliger Elementsatz

1 67197C 25304F 25352.76923611 .00721760 00000+0 99320-3 0 3527
2 67197 69.9983 31.2670 0009083 255.6427 244.2315 16.05068412 11
Epoch: 18. Dez. 2025 • Age: 71 hours

Aktueller Status

Höhe 267.7 km
Geschwindigkeit 7.75 km/s
Subsatellitenpunkt 67.82°N, 73.52°E
Startdatum 17. Dez. 2025
Alter 3 days
Typ internet

Technische Details

Klassifizierung Payload
Masse 575.00 kg
Trockenmasse 530.00 kg
Gesamtmasse 575.00 kg
Länge 0.30 m
Durchmesser 4.10 m
Spannweite 29.00 m
Form Box + pan
Hersteller SPXS
Bus-Typ Starlink V2MO
Phasenstatus In Orbit
Besitzer/Staat SPXS/US

Große Konstellationen

Loading constellations...